OPS 4682 DEB, 38425

Orbit data source: Space-Track

OPS 4682 DEB, 38425 is space debris in LEO originally from a launch on Sat, 03 Apr 1965 UTC launched from the Air Force Western Test Range (AFWTR). Debris objects in space refer to the collection of defunct objects orbiting the Earth. Examples of debris include non-operational satellites, rocket bodies, and fragments generated from explosions, collisions, or faulty payload assembly.

Loading next visibility...
Identifier
38425, 1965-027EE
Orbit
LEO
Country
Flag of USUS
Related business
Manufacturer
Unknown
Mission
Spacecraft
Bus & Motor
Unknown
Mass
Unknown
Launch date (UTC)
1965-04-03 (61 years ago)
Launch vehicle
Unknown
Launch site
Air Force Western Test Range (AFWTR)
Object type
Payload
Rocket body
Debris
Shape & HBR
Unknown shape, 0.1 m
Radar Cross Section
Medium (>0.1 m² and <1 m²)

Expand to show TLE details & history
Last TLE update: 10 hours ago

TLE from 10 hours ago
0 OPS 4682 DEB
1 38425U 65027EE  26208.39687373 -.00000038  00000-0 -16301-3 0  9993
2 38425  90.2457   8.6042 0038808 123.0683 237.4173 12.95204029667764
Epoch: 2026-07-27T09:31Z
TLE epoch observation values (Epoch: 2026-07-27T09:31:29.890Z)
Latitude
0.00003°
Longitude
-79.35138°
Altitude
1,299.903 km
Speed
7.199 km/s
True Right ascension
00h 34m 25s
True Declination
0° 00' 00"
Sunlit
Object was in daylight at epoch
Visualization orbit readout
Latitude
Unknown
Longitude
Unknown
Altitude
Unknown
Speed
Unknown
Apparent Right ascension
Unknown
Apparent Declination
Unknown
Sunlit
N/A
Visualization observer readout
Local Sidereal Time
09:17:15
Azimuth
Unknown
Elevation
Unknown
Doppler factor
Unknown
Orbital elements
Apogee altitude
1,307.782 km
Perigee altitude
1,248.357 km
Semi-major axis
7,656.207 km
Eccentricity
0.00388
Inclination
90.2457°
RAAN
8.6042°
Arg. of periapsis
123.0683°
True anomaly
237.04356°
Mean anomaly
237.4173°
Eccentric anomaly
237.23033°
Mean motion
3.23983 °/min
Orbital period
111.12 mins
BSTAR
-0.00016301
Loading maneuver chart data...
Computing Atmospheric mass density...
Loading historical data...
Loading historical data...
Loading historical data...
Loading historical data...
Loading historical data...
Loading historical data...
Loading historical data...

Documentation

Showing up to 5 results
|